User: anonymous   Login
Location: Caltech
(34.1382°N, 118.1253°W)
Time: 12:50:15
(UTC-08:00)
Language:

BREEZE M DEB (TANK) - Orbit

View from above orbital plane
View from above orbital plane
View from above satellite
View from above satellite

Ground track
Ground track

The orbit data is extracted from the following two-line orbital elements,

1 33437U 08057B   14354.82930883  .00003310  00000-0  10452-2 0  1407
2 33437 049.5667 301.9479 5003518 136.3160 311.6162 05.56433813123020
Epoch (UTC): 20 December 2014 19:54:12
Eccentricity: 0.5003518
inclination: 49.5667°
perigee height: 343 km
apogee height: 13805 km
right ascension of ascending node: 301.9479°
argument of perigee: 136.3160°
revolutions per day: 5.56433813
mean anomaly at epoch: 311.6162°
orbit number at epoch: 12302

The dashed part of the orbit path shows where the satellite is in the earth's shadow,  

DLR